Regional Weather Roundup
Issued by NWS

Home | Current Version | Previous Version | Graphics & Text | Print | Product List | Glossary On
Versions: 1 2 3 4 5 6 7 8 9 10 11 12 13 14 15 16 17 18 19 20 21 22 23 24 25 26 27 28 29 30 31 32 33 34 35 36 37 38 39 40 41 42 43 44 45 46 47 48 49 50
000
ASUS43 KIND 290609
RWRIN

WEATHER ROUNDUP FOR INDIANA
NATIONAL WEATHER SERVICE INDIANAPOLIS IN
200 AM EDT THU SEP 29 2016

NOTE: "FAIR" INDICATES FEW OR NO CLOUDS BELOW 12,000 FEET WITH NO
SIGNIFICANT WEATHER AND/OR OBSTRUCTIONS TO VISIBILITY.

* - STATION DOES NOT REPORT WEATHER SUCH AS PRECIPITATION OR FOG.

+ - STATION NOT QUALITY CONTROLLED BY THE NATIONAL WEATHER SERVICE.
    USE DATA WITH CAUTION...ESPECIALLY DEWPOINT AND RELATIVE
    HUMIDITY OBSERVATIONS.

INZ001>003-010>013-019-020-290700-
NORTHWEST INDIANA

CITY           SKY/WX    TMP DP  RH WIND       PRES   REMARKS
GARY /AIRPORT/ CLOUDY    63  56  79 N12       30.04F
KNOX *+        CLOUDY    55  41  58 N10       30.00S
LA PORTE +     RAIN      57  57 100 N10G17    30.01F
6HR MIN TEMP:  55; 6HR MAX TEMP:  59; 6HR PCP:  0.03;

MICHIGAN CITY+ LGT RAIN  55  55 100 CALM      30.02F
MONTICELLO +   LGT RAIN  55  51  86 N7        29.97F
6HR MIN TEMP:  53; 6HR MAX TEMP:  57; 6HR PCP:  0.01;

RENSSELAER +   LGT RAIN  55  54  94 N5        30.00F
VALPARAISO     LGT RAIN  57  54  89 N9        30.02F
6HR MIN TEMP:  57; 6HR MAX TEMP:  58; 6HR PCP:  0.02;


$$

LMZ046-743>745-290700-
SOUTHERN LAKE MICHIGAN

STATION/POSITION TIME  TEMP    WIND        PRES    WAVE
                       AIR SEA DIR/SP/G            HT
                 (UTC) (F)     (DEG/KT/KT) (MB)    (FT)
BURNS HARBOR     0540   62      40/ 22/ 24 1016.9S
MICHIGAN CITY    0540   60      20/ 26/ 28   N/A
5NW MICH CITY    0600   62 66   30/ 19/ 25   N/A     7

$$

INZ004-005-014>016-021>024-290700-
NORTH CENTRAL INDIANA

CITY           SKY/WX    TMP DP  RH WIND       PRES   REMARKS
GOSHEN         LGT RAIN  56  53  90 N9        29.98F
6HR MIN TEMP:  55; 6HR MAX TEMP:  57; 6HR PCP:  0.43;

LOGANSPORT +   CLOUDY    54  52  94 N5        29.98S
PERU/GRISSOM   CLOUDY    55  55 100 N6        29.96R
6HR MIN TEMP:  54; 6HR MAX TEMP:  57; 6HR PCP:  0.01;

ROCHESTER +    DRIZZLE   55  55 100 CALM      29.98S
SOUTH BEND     LGT RAIN  55  54  96 N10       30.02F
6HR MIN TEMP:  55; 6HR MAX TEMP:  55; 6HR PCP:  0.10;

WARSAW +       LGT RAIN  54  54 100 NE9       29.98F

$$

INZ006>009-017-018-025>027-290700-
NORTHEAST INDIANA

CITY           SKY/WX    TMP DP  RH WIND       PRES   REMARKS
ANGOLA *+        N/A     55  45  67 E8        29.98S
AUBURN +       CLOUDY    55  54  94 NE8       29.98R
FORT WAYNE     CLOUDY    55  53  93 N5        29.97S
6HR MIN TEMP:  54; 6HR MAX TEMP:  55; 6HR PCP: TRACE;

HUNTINGTON +   CLOUDY    53  51  95 CALM      29.97S FOG
6HR MIN TEMP:  51; 6HR MAX TEMP:  53; 6HR PCP:  0.06;

KENDALLVILLE + CLOUDY    55  55 100 NE7       29.98S

$$

INZ028-029-035-036-043>045-051>053-290700-
WEST CENTRAL INDIANA

CITY           SKY/WX    TMP DP  RH WIND       PRES   REMARKS
CRAWFORDSVL +  CLOUDY    52  52 100 NW5       29.98F
6HR MIN TEMP:  51; 6HR MAX TEMP:  55;

GREENCASTLE +  CLOUDY    54  54 100 NW3       29.99F FOG
LAFAYETTE      NOT AVBL
TERRE HAUTE    CLOUDY    55  50  83 NW7       30.00F
6HR MIN TEMP:  54; 6HR MAX TEMP:  59; 6HR PCP: TRACE;


$$

INZ030>032-037>040-046>048-054>057-064-065-290700-
CENTRAL INDIANA

CITY           SKY/WX    TMP DP  RH WIND       PRES   REMARKS
FISHERS *+     CLOUDY    52  52 100 CALM      29.97S
FRANKFORT +    LGT RAIN  56  54  91 NW6       29.99F
6HR MIN TEMP:  56; 6HR MAX TEMP:  59;

GREENWOOD *+   CLOUDY    55  55 100 NW5       29.98S
INDIANAPOLIS   MOCLDY    53  51  93 NW7       29.97S
6HR MIN TEMP:  53; 6HR MAX TEMP:  57;

-EAGLE CREEK   CLOUDY    55  52  89 NW8       29.97S
6HR MIN TEMP:  55; 6HR MAX TEMP:  58;

KOKOMO *+      CLOUDY    55  53  93 NW3       29.97F
6HR MIN TEMP:  54; 6HR MAX TEMP:  56; 6HR PCP: TRACE;

MARION +       MOCLDY    53  51  95 CALM      29.97S
MT COMFORT *+  CLOUDY    54  52  94 N3        29.97F
SHELBYVILLE    CLOUDY    56  52  86 CALM      29.97S
6HR MIN TEMP:  54; 6HR MAX TEMP:  58;

ZIONSVILLE +   CLOUDY    53  51  92 N7        29.98F
6HR MIN TEMP:  52; 6HR MAX TEMP:  55;


$$

INZ033-034-041-042-049-050-058-059-290700-
EAST CENTRAL INDIANA

CITY           SKY/WX    TMP DP  RH WIND       PRES   REMARKS
MUNCIE         CLOUDY    55  53  93 CALM      29.96S
6HR MIN TEMP:  53; 6HR MAX TEMP:  56;


$$

INZ060-061-067>069-081>083-085>088-290700-
SOUTHWEST INDIANA

CITY           SKY/WX    TMP DP  RH WIND       PRES   REMARKS
EVANSVILLE     PTCLDY    54  48  80 W7        30.04S
6HR MIN TEMP:  54; 6HR MAX TEMP:  59;

HUNTINGBURG *+   N/A     52  46  82 W5        30.02S
6HR MIN TEMP:  50; 6HR MAX TEMP:  61;

WASHINGTON +   PTCLDY    53  52  96 MISG      30.00F
6HR MIN TEMP:  52; 6HR MAX TEMP:  60;


$$

INZ062-063-066-070>080-084-089>092-290700-
SOUTH CENTRAL AND SOUTHEAST INDIANA

CITY           SKY/WX    TMP DP  RH WIND       PRES   REMARKS
BLOOMINGTON    CLOUDY    54  50  86 VRB5      29.99F
6HR MIN TEMP:  53; 6HR MAX TEMP:  57;

MADISON *+     CLOUDY    54  52  94 CALM      30.00S
NORTH VERNON + CLOUDY   N/A N/A N/A NW3       29.98S
SEYMOUR +      CLOUDY    55  50  82 CALM      29.98S

$$





USA.gov is the U.S. government's official web portal to all federal, state and local government web resources and services.